This is the latest recevied weather packets stored in our database for station/object KO4LCK. If no packets are shown the sender has not sent any weather packets the latest 1 day(s).
| Time | Temp. | Humidity | Pressure | Rain* | Wind** | Luminosity | Snow |
|---|---|---|---|---|---|---|---|
| 1778029389 | 21.67° C | 53% | 1013.2 hPa | 0 mm | 0 m/s | 0 W/m² | - |
| 1778029086 | 22.22° C | 53% | 1013.3 hPa | 0 mm | 0 m/s | 0 W/m² | - |
| 1778028782 | 22.22° C | 52% | 1013.1 hPa | 0 mm | 0 m/s | 0 W/m² | - |
| 1778028478 | 22.22° C | 52% | 1013.1 hPa | 0 mm | 0 m/s | 0 W/m² | - |
| 1778028176 | 22.22° C | 53% | 1013 hPa | 0 mm | 0 m/s | 0 W/m² | - |
| 1778027872 | 22.22° C | 52% | 1013.2 hPa | 0 mm | 0.45 m/s, 220° | 0 W/m² | - |
| 1778027568 | 22.22° C | 52% | 1013.1 hPa | 0 mm | 0 m/s | 0 W/m² | - |
| 1778027265 | 22.78° C | 51% | 1013.3 hPa | 0 mm | 0 m/s | 1 W/m² | - |
| 1778026961 | 22.78° C | 50% | 1013.3 hPa | 0 mm | 0 m/s | 2 W/m² | - |
| 1778026656 | 22.78° C | 49% | 1013.2 hPa | 0 mm | 0.89 m/s, 166° | 6 W/m² | - |
| 1778026355 | 22.78° C | 50% | 1013 hPa | 0 mm | 0.45 m/s, 227° | 8 W/m² | - |
| 1778026051 | 22.22° C | 51% | 1013.2 hPa | 0 mm | 0 m/s | 8 W/m² | - |
| 1778025749 | 22.78° C | 53% | 1013.2 hPa | 0 mm | 0 m/s | 11 W/m² | - |
| 1778025446 | 22.78° C | 48% | 1013.1 hPa | 0 mm | 0 m/s | 17 W/m² | - |
| 1778025144 | 23.33° C | 47% | 1013.2 hPa | 0 mm | 0 m/s | 21 W/m² | - |
| 1778024840 | 23.33° C | 47% | 1013.3 hPa | 0 mm | 0 m/s | 25 W/m² | - |
| 1778024538 | 23.33° C | 47% | 1013.3 hPa | 0 mm | 0 m/s | 28 W/m² | - |
| 1778024234 | 23.33° C | 46% | 1013.3 hPa | 0 mm | 0.89 m/s, 210° | 27 W/m² | - |
| 1778023932 | 23.89° C | 47% | 1013.5 hPa | 0 mm | 0 m/s | 32 W/m² | - |
| 1778023629 | 23.89° C | 49% | 1013.4 hPa | 0 mm | 0 m/s | 33 W/m² | - |
| 1778023326 | 23.89° C | 44% | 1013.5 hPa | 0 mm | 0.89 m/s, 217° | 28 W/m² | - |
| 1778023023 | 23.89° C | 44% | 1013.7 hPa | 0 mm | 0 m/s | 29 W/m² | - |
| 1778022722 | 23.89° C | 43% | 1013.5 hPa | 0 mm | 0.89 m/s, 125° | 25 W/m² | - |
| 1778022420 | 24.44° C | 42% | 1013.6 hPa | 0 mm | 0.45 m/s, 221° | 31 W/m² | - |
| 1778022116 | 24.44° C | 42% | 1013.4 hPa | 0 mm | 0.89 m/s, 209° | 35 W/m² | - |
* Rain latest hour (hover to see other rain measurements)
** Current wind speed in m/s (hover to see current wind gust speed)